QPF
0.00 0.00 0.00 0.00 0.00 0.00 0.00 0.00 0.00 0.00 0.00 0.01 0.01 0.01 0.02 0.02 0.02 0.02 0.00 0.00 0.00 0.00 0.00 0.00 0.00 0.00 0.00 0.00 0.00 0.00 0.00 0.00 0.00 0.00 0.00 0.00 0.00 0.00 0.00 0.00 0.00 0.01 0.01 0.00 0.00 0.00 0.01 0.01 0.01
0.00 0.00 0.00 0.00 0.00 0.00 0.00 0.00 0.00 0.01 0.01 0.01 0.01 0.01 0.02 0.02 0.01 0.01 0.00 0.00 0.00 0.00 0.00 0.00 0.00 0.00 0.00 0.00 0.00 0.00 0.00 0.00 0.00 0.00 0.00 0.00 0.00 0.00 0.00 0.00 0.00 0.01 0.01 0.01 0.01 0.01 0.01 0.01 0.01
0.00 0.00 0.00 0.00 0.00 0.00 0.00 0.00 0.00 0.01 0.01 0.02 0.02 0.02 0.02 0.02 0.01 0.02 0.01 0.01 0.00 0.00 0.00 0.00 0.00 0.00 0.00 0.00 0.00 0.00 0.00 0.00 0.00 0.00 0.00 0.00 0.00 0.00 0.00 0.00 0.01 0.01 0.01 0.01 0.01 0.01 0.01 0.01 0.01
0.00 0.00 0.00 0.00 0.00 0.00 0.00 0.00 0.00 0.01 0.02 0.03 0.02 0.02 0.02 0.02 0.02 0.03 0.02 0.02 0.02 0.01 0.01 0.00 0.00 0.00 0.00 0.00 0.00 0.00 0.00 0.00 0.00 0.00 0.00 0.00 0.00 0.00 0.00 0.00 0.01 0.01 0.01 0.01 0.01 0.01 0.01 0.01 0.01
0.00 0.00 0.00 0.00 0.00 0.00 0.00 0.00 0.00 0.00 0.01 0.02 0.02 0.02 0.03 0.03 0.04 0.04 0.04 0.05 0.08 0.03 0.01 0.01 0.01 0.01 0.00 0.00 0.00 0.00 0.00 0.00 0.00 0.00 0.00 0.00 0.00 0.00 0.00 0.00 0.00 0.01 0.01 0.01 0.01 0.01 0.01 0.02 0.02
0.00 0.00 0.00 0.00 0.00 0.00 0.00 0.00 0.00 0.01 0.01 0.01 0.02 0.01 0.03 0.05 0.06 0.09 0.12 0.10 0.10 0.05 0.03 0.02 0.02 0.01 0.01 0.01 0.01 0.01 0.00 0.00 0.00 0.00 0.00 0.00 0.00 0.00 0.00 0.00 0.00 0.01 0.01 0.01 0.01 0.01 0.01 0.02 0.03
0.00 0.00 0.00 0.00 0.00 0.00 0.00 0.00 0.01 0.01 0.01 0.01 0.01 0.01 0.03 0.05 0.06 0.09 0.15 0.19 0.18 0.12 0.06 0.04 0.03 0.02 0.02 0.02 0.01 0.01 0.01 0.00 0.00 0.00 0.00 0.00 0.00 0.00 0.01 0.01 0.00 0.00 0.00 0.01 0.01 0.01 0.01 0.01 0.02
0.00 0.00 0.00 0.00 0.00 0.00 0.00 0.00 0.00 0.01 0.01 0.01 0.01 0.01 0.03 0.06 0.07 0.06 0.05 0.08 0.12 0.11 0.08 0.07 0.05 0.03 0.02 0.03 0.03 0.02 0.02 0.01 0.01 0.01 0.01 0.01 0.00 0.00 0.00 0.00 0.00 0.00 0.00 0.00 0.01 0.01 0.01 0.01 0.01
0.00 0.00 0.00 0.00 0.00 0.00 0.00 0.00 0.01 0.01 0.01 0.01 0.01 0.02 0.03 0.05 0.08 0.10 0.08 0.07 0.06 0.06 0.06 0.07 0.05 0.04 0.03 0.03 0.03 0.02 0.02 0.02 0.01 0.01 0.01 0.01 0.00 0.00 0.00 0.00 0.00 0.00 0.00 0.00 0.00 0.00 0.01 0.01 0.01
0.00 0.00 0.00 0.00 0.00 0.00 0.00 0.00 0.01 0.02 0.02 0.03 0.04 0.04 0.06 0.07 0.10 0.19 0.18 0.13 0.11 0.09 0.07 0.08 0.10 0.07 0.06 0.05 0.05 0.03 0.02 0.01 0.01 0.01 0.01 0.00 0.00 0.00 0.00 0.01 0.01 0.01 0.01 0.01 0.01 0.01 0.01 0.01 0.00
0.00 0.00 0.00 0.00 0.00 0.00 0.00 0.00 0.01 0.01 0.01 0.01 0.03 0.05 0.06 0.08 0.14 0.23 0.26 0.18 0.15 0.12 0.12 0.11 0.09 0.08 0.08 0.06 0.05 0.03 0.02 0.01 0.01 0.01 0.01 0.00 0.00 0.01 0.01 0.01 0.02 0.01 0.01 0.01 0.01 0.01 0.01 0.00 0.00
0.00 0.00 0.00 0.00 0.00 0.00 0.00 0.00 0.01 0.01 0.01 0.01 0.02 0.04 0.07 0.09 0.18 0.24 0.23 0.20 0.16 0.17 0.17 0.15 0.13 0.11 0.08 0.06 0.05 0.04 0.02 0.01 0.01 0.01 0.01 0.01 0.01 0.01 0.01 0.02 0.02 0.01 0.02 0.02 0.02 0.02 0.01 0.01 0.00
0.00 0.00 0.00 0.00 0.00 0.00 0.00 0.00 0.00 0.00 0.01 0.01 0.02 0.05 0.09 0.07 0.06 0.10 0.13 0.14 0.15 0.17 0.18 0.17 0.14 0.13 0.11 0.09 0.07 0.05 0.04 0.02 0.01 0.01 0.01 0.01 0.00 0.01 0.01 0.02 0.02 0.03 0.05 0.04 0.04 0.03 0.02 0.01 0.01
0.00 0.00 0.00 0.00 0.00 0.00 0.00 0.00 0.00 0.01 0.01 0.01 0.01 0.04 0.07 0.05 0.05 0.06 0.08 0.09 0.11 0.15 0.16 0.13 0.10 0.10 0.11 0.11 0.09 0.07 0.06 0.05 0.03 0.03 0.02 0.02 0.01 0.01 0.02 0.04 0.04 0.04 0.06 0.07 0.07 0.06 0.05 0.04 0.03
0.00 0.00 0.00 0.00 0.00 0.00 0.00 0.00 0.01 0.01 0.01 0.01 0.02 0.03 0.04 0.04 0.04 0.05 0.06 0.08 0.08 0.08 0.09 0.09 0.06 0.07 0.07 0.09 0.10 0.10 0.08 0.05 0.05 0.05 0.04 0.03 0.03 0.03 0.03 0.07 0.08 0.08 0.10 0.11 0.11 0.10 0.10 0.07 0.06
0.00 0.00 0.00 0.00 0.00 0.00 0.00 0.00 0.01 0.01 0.01 0.01 0.02 0.03 0.03 0.04 0.04 0.04 0.04 0.07 0.08 0.08 0.07 0.08 0.08 0.10 0.09 0.10 0.10 0.10 0.08 0.07 0.07 0.07 0.06 0.06 0.05 0.03 0.04 0.06 0.07 0.08 0.10 0.11 0.14 0.15 0.14 0.13 0.12
0.00 0.00 0.00 0.00 0.00 0.00 0.00 0.00 0.01 0.01 0.01 0.01 0.01 0.02 0.03 0.03 0.03 0.04 0.05 0.07 0.09 0.08 0.07 0.09 0.12 0.12 0.10 0.10 0.11 0.10 0.12 0.14 0.13 0.13 0.09 0.08 0.07 0.05 0.05 0.06 0.09 0.11 0.11 0.11 0.14 0.15 0.15 0.14 0.14
0.00 0.00 0.00 0.00 0.00 0.00 0.00 0.00 0.01 0.01 0.02 0.03 0.02 0.02 0.02 0.02 0.03 0.05 0.07 0.06 0.06 0.06 0.06 0.07 0.15 0.18 0.12 0.12 0.14 0.17 0.23 0.24 0.23 0.18 0.14 0.11 0.09 0.07 0.07 0.06 0.08 0.12 0.13 0.12 0.13 0.12 0.12 0.13 0.14
0.00 0.00 0.00 0.00 0.00 0.00 0.00 0.01 0.01 0.02 0.02 0.02 0.02 0.02 0.01 0.01 0.05 0.07 0.06 0.04 0.04 0.05 0.07 0.06 0.09 0.14 0.14 0.16 0.18 0.21 0.28 0.28 0.20 0.15 0.13 0.11 0.09 0.07 0.06 0.07 0.07 0.09 0.11 0.12 0.11 0.10 0.11 0.11 0.12
0.00 0.00 0.00 0.00 0.00 0.00 0.01 0.01 0.02 0.02 0.02 0.02 0.02 0.02 0.02 0.02 0.04 0.08 0.06 0.03 0.02 0.03 0.10 0.11 0.10 0.11 0.14 0.16 0.19 0.23 0.27 0.26 0.20 0.14 0.09 0.08 0.07 0.06 0.05 0.06 0.07 0.07 0.08 0.07 0.07 0.08 0.09 0.09 0.12
0.00 0.00 0.00 0.00 0.00 0.01 0.01 0.02 0.03 0.03 0.03 0.03 0.03 0.03 0.02 0.02 0.03 0.06 0.08 0.05 0.03 0.03 0.05 0.06 0.06 0.07 0.09 0.14 0.17 0.15 0.14 0.17 0.16 0.10 0.07 0.06 0.05 0.05 0.06 0.06 0.08 0.08 0.06 0.06 0.06 0.07 0.08 0.09 0.09
0.00 0.00 0.00 0.00 0.00 0.00 0.01 0.02 0.03 0.04 0.06 0.06 0.05 0.04 0.04 0.03 0.02 0.06 0.11 0.07 0.05 0.04 0.04 0.04 0.04 0.05 0.05 0.07 0.09 0.09 0.10 0.11 0.08 0.08 0.08 0.07 0.05 0.05 0.06 0.06 0.08 0.08 0.06 0.06 0.07 0.07 0.07 0.07 0.07
0.00 0.00 0.00 0.00 0.00 0.00 0.00 0.01 0.02 0.04 0.05 0.05 0.05 0.05 0.05 0.05 0.05 0.05 0.06 0.04 0.04 0.04 0.03 0.03 0.03 0.03 0.04 0.05 0.05 0.06 0.06 0.07 0.08 0.07 0.06 0.05 0.04 0.05 0.05 0.06 0.07 0.07 0.07 0.08 0.08 0.07 0.06 0.06 0.07
0.00 0.00 0.00 0.00 0.00 0.00 0.00 0.01 0.01 0.02 0.02 0.03 0.04 0.04 0.06 0.06 0.06 0.04 0.03 0.03 0.02 0.02 0.01 0.01 0.02 0.02 0.02 0.03 0.03 0.04 0.05 0.06 0.06 0.05 0.05 0.04 0.03 0.03 0.03 0.04 0.06 0.06 0.07 0.08 0.07 0.06 0.05 0.06 0.06
0.00 0.00 0.00 0.00 0.00 0.00 0.00 0.01 0.01 0.01 0.02 0.02 0.03 0.05 0.08 0.08 0.08 0.06 0.04 0.03 0.02 0.01 0.00 0.00 0.01 0.01 0.01 0.01 0.02 0.02 0.03 0.04 0.03 0.03 0.03 0.03 0.03 0.04 0.04 0.05 0.04 0.04 0.05 0.05 0.05 0.05 0.05 0.05 0.05
0.00 0.00 0.00 0.00 0.00 0.00 0.00 0.01 0.01 0.01 0.02 0.02 0.03 0.05 0.09 0.09 0.06 0.05 0.04 0.02 0.02 0.01 0.01 0.00 0.00 0.00 0.00 0.00 0.00 0.01 0.01 0.01 0.02 0.03 0.03 0.04 0.04 0.03 0.03 0.03 0.03 0.03 0.03 0.04 0.04 0.04 0.04 0.04 0.05
0.00 0.00 0.00 0.01 0.00 0.00 0.00 0.01 0.01 0.01 0.02 0.02 0.03 0.04 0.05 0.05 0.05 0.04 0.04 0.03 0.02 0.01 0.01 0.01 0.00 0.00 0.00 0.00 0.00 0.00 0.00 0.01 0.01 0.01 0.02 0.03 0.03 0.02 0.02 0.03 0.03 0.02 0.02 0.02 0.03 0.03 0.03 0.03 0.04
0.00 0.00 0.00 0.00 0.00 0.00 0.00 0.01 0.01 0.01 0.01 0.02 0.02 0.03 0.04 0.04 0.04 0.04 0.04 0.03 0.02 0.01 0.01 0.01 0.00 0.00 0.00 0.00 0.00 0.01 0.00 0.01 0.01 0.01 0.01 0.01 0.01 0.01 0.01 0.01 0.02 0.02 0.03 0.03 0.02 0.01 0.01 0.02 0.03
0.00 0.00 0.01 0.01 0.01 0.00 0.00 0.00 0.00 0.00 0.01 0.02 0.04 0.04 0.06 0.06 0.05 0.04 0.03 0.02 0.01 0.01 0.01 0.01 0.00 0.00 0.00 0.00 0.00 0.01 0.00 0.01 0.01 0.01 0.01 0.01 0.01 0.01 0.01 0.02 0.02 0.02 0.02 0.01 0.01 0.02 0.02 0.02 0.02
0.00 0.00 0.00 0.01 0.01 0.01 0.00 0.00 0.00 0.01 0.01 0.02 0.03 0.04 0.05 0.05 0.04 0.03 0.02 0.01 0.01 0.01 0.01 0.00 0.00 0.00 0.00 0.00 0.00 0.00 0.00 0.00 0.01 0.01 0.01 0.01 0.01 0.01 0.01 0.02 0.02 0.02 0.02 0.01 0.01 0.01 0.02 0.02 0.02
MSLP
1009.96 1011.00 1012.21 1013.40 1014.36 1014.95 1015.09 1014.81 1014.19 1013.40 1012.63 1012.01 1011.64 1011.52 1011.60 1011.78 1011.96 1012.06 1012.05 1011.95 1011.83 1011.77 1011.84 1012.07 1012.44 1012.91 1013.39 1013.81 1014.11 1014.29 1014.38 1014.44 1014.55 1014.76 1015.10 1015.55 1016.07 1016.60 1017.06 1017.41 1017.64 1017.76 1017.81 1017.83 1017.86 1017.94 1018.07 1018.22 1018.39
1010.49 1011.70 1012.99 1014.14 1014.96 1015.31 1015.17 1014.60 1013.72 1012.74 1011.84 1011.17 1010.81 1010.75 1010.91 1011.18 1011.46 1011.64 1011.72 1011.71 1011.69 1011.73 1011.91 1012.24 1012.73 1013.29 1013.85 1014.34 1014.70 1014.93 1015.05 1015.13 1015.23 1015.41 1015.69 1016.06 1016.49 1016.91 1017.29 1017.57 1017.76 1017.86 1017.92 1017.97 1018.03 1018.14 1018.27 1018.43 1018.58
1011.14 1012.45 1013.73 1014.77 1015.38 1015.49 1015.08 1014.25 1013.19 1012.09 1011.16 1010.53 1010.26 1010.30 1010.58 1010.96 1011.32 1011.57 1011.70 1011.74 1011.76 1011.86 1012.09 1012.50 1013.05 1013.68 1014.30 1014.86 1015.28 1015.56 1015.72 1015.82 1015.92 1016.07 1016.28 1016.57 1016.89 1017.21 1017.49 1017.69 1017.84 1017.93 1018.01 1018.10 1018.21 1018.34 1018.49 1018.64 1018.76
1011.86 1013.18 1014.38 1015.25 1015.63 1015.48 1014.84 1013.84 1012.68 1011.57 1010.71 1010.20 1010.08 1010.27 1010.68 1011.16 1011.57 1011.85 1011.99 1012.02 1012.04 1012.13 1012.37 1012.79 1013.35 1014.01 1014.67 1015.27 1015.74 1016.07 1016.28 1016.41 1016.53 1016.66 1016.83 1017.04 1017.27 1017.49 1017.68 1017.83 1017.94 1018.04 1018.14 1018.26 1018.41 1018.57 1018.73 1018.87 1018.97
1012.57 1013.83 1014.88 1015.54 1015.69 1015.32 1014.51 1013.43 1012.27 1011.25 1010.54 1010.22 1010.29 1010.65 1011.18 1011.72 1012.16 1012.42 1012.51 1012.49 1012.45 1012.49 1012.68 1013.05 1013.59 1014.23 1014.89 1015.49 1016.00 1016.37 1016.63 1016.82 1016.96 1017.11 1017.27 1017.44 1017.61 1017.77 1017.90 1018.00 1018.09 1018.20 1018.32 1018.48 1018.66 1018.85 1019.01 1019.13 1019.21
1013.18 1014.32 1015.18 1015.62 1015.56 1015.03 1014.14 1013.06 1011.99 1011.16 1010.66 1010.57 1010.84 1011.35 1011.96 1012.53 1012.93 1013.12 1013.12 1013.00 1012.87 1012.82 1012.93 1013.23 1013.70 1014.29 1014.91 1015.50 1016.01 1016.41 1016.73 1016.98 1017.18 1017.38 1017.57 1017.74 1017.90 1018.03 1018.13 1018.21 1018.30 1018.41 1018.56 1018.74 1018.94 1019.14 1019.30 1019.40 1019.45
1013.63 1014.61 1015.26 1015.48 1015.25 1014.62 1013.73 1012.74 1011.86 1011.25 1011.01 1011.15 1011.59 1012.21 1012.86 1013.39 1013.71 1013.80 1013.68 1013.44 1013.20 1013.06 1013.08 1013.29 1013.68 1014.18 1014.74 1015.29 1015.78 1016.21 1016.57 1016.89 1017.18 1017.46 1017.71 1017.94 1018.12 1018.26 1018.36 1018.44 1018.53 1018.64 1018.80 1019.00 1019.21 1019.41 1019.57 1019.66 1019.68
1013.89 1014.67 1015.11 1015.15 1014.80 1014.13 1013.30 1012.48 1011.82 1011.48 1011.49 1011.82 1012.40 1013.07 1013.69 1014.14 1014.35 1014.30 1014.06 1013.72 1013.39 1013.17 1013.11 1013.25 1013.55 1013.97 1014.45 1014.93 1015.40 1015.83 1016.23 1016.62 1017.00 1017.37 1017.72 1018.02 1018.26 1018.44 1018.56 1018.65 1018.73 1018.85 1019.01 1019.21 1019.43 1019.63 1019.78 1019.87 1019.89
1013.96 1014.53 1014.77 1014.66 1014.23 1013.59 1012.88 1012.26 1011.85 1011.76 1011.99 1012.48 1013.13 1013.79 1014.34 1014.67 1014.74 1014.57 1014.23 1013.81 1013.43 1013.17 1013.08 1013.17 1013.40 1013.74 1014.14 1014.55 1014.97 1015.38 1015.80 1016.25 1016.71 1017.18 1017.62 1018.01 1018.33 1018.55 1018.70 1018.80 1018.89 1019.00 1019.16 1019.35 1019.57 1019.77 1019.93 1020.03 1020.06
1013.88 1014.25 1014.32 1014.08 1013.62 1013.04 1012.48 1012.07 1011.90 1012.04 1012.45 1013.04 1013.71 1014.32 1014.75 1014.95 1014.89 1014.61 1014.21 1013.77 1013.39 1013.15 1013.06 1013.13 1013.33 1013.61 1013.92 1014.25 1014.60 1014.97 1015.39 1015.86 1016.39 1016.93 1017.46 1017.94 1018.32 1018.60 1018.78 1018.89 1018.98 1019.08 1019.22 1019.41 1019.63 1019.85 1020.03 1020.15 1020.22
1013.74 1013.92 1013.82 1013.50 1013.03 1012.53 1012.13 1011.93 1011.99 1012.31 1012.85 1013.49 1014.13 1014.65 1014.96 1015.02 1014.85 1014.51 1014.09 1013.68 1013.36 1013.18 1013.14 1013.24 1013.42 1013.64 1013.88 1014.12 1014.39 1014.70 1015.08 1015.55 1016.10 1016.70 1017.29 1017.83 1018.27 1018.58 1018.79 1018.91 1019.00 1019.09 1019.23 1019.41 1019.64 1019.87 1020.09 1020.26 1020.37
1013.62 1013.62 1013.39 1012.99 1012.53 1012.13 1011.89 1011.87 1012.11 1012.58 1013.20 1013.85 1014.43 1014.84 1015.03 1014.98 1014.74 1014.37 1013.98 1013.64 1013.42 1013.34 1013.38 1013.52 1013.70 1013.88 1014.04 1014.20 1014.37 1014.60 1014.93 1015.37 1015.91 1016.52 1017.14 1017.71 1018.18 1018.53 1018.75 1018.88 1018.96 1019.05 1019.18 1019.37 1019.61 1019.88 1020.13 1020.36 1020.52
1013.58 1013.42 1013.08 1012.63 1012.21 1011.90 1011.80 1011.94 1012.32 1012.89 1013.54 1014.17 1014.68 1014.99 1015.07 1014.94 1014.66 1014.31 1013.98 1013.74 1013.63 1013.65 1013.78 1013.96 1014.15 1014.29 1014.38 1014.45 1014.53 1014.67 1014.93 1015.31 1015.82 1016.41 1017.02 1017.60 1018.08 1018.43 1018.67 1018.80 1018.89 1018.98 1019.11 1019.31 1019.57 1019.87 1020.17 1020.45 1020.67
1013.65 1013.37 1012.95 1012.49 1012.10 1011.89 1011.92 1012.18 1012.67 1013.29 1013.94 1014.52 1014.95 1015.16 1015.16 1014.98 1014.69 1014.38 1014.13 1013.99 1013.98 1014.10 1014.30 1014.51 1014.69 1014.79 1014.82 1014.81 1014.80 1014.86 1015.04 1015.36 1015.81 1016.35 1016.94 1017.49 1017.96 1018.31 1018.55 1018.69 1018.78 1018.88 1019.02 1019.23 1019.51 1019.84 1020.18 1020.51 1020.78
1013.83 1013.46 1013.00 1012.55 1012.23 1012.12 1012.25 1012.61 1013.16 1013.80 1014.42 1014.93 1015.27 1015.41 1015.34 1015.14 1014.86 1014.59 1014.41 1014.36 1014.43 1014.61 1014.83 1015.05 1015.20 1015.26 1015.23 1015.16 1015.09 1015.08 1015.19 1015.45 1015.84 1016.33 1016.86 1017.37 1017.81 1018.15 1018.38 1018.53 1018.63 1018.74 1018.89 1019.12 1019.41 1019.76 1020.14 1020.50 1020.82
1014.05 1013.65 1013.19 1012.81 1012.58 1012.57 1012.80 1013.23 1013.80 1014.41 1014.97 1015.41 1015.65 1015.71 1015.60 1015.38 1015.12 1014.90 1014.77 1014.77 1014.88 1015.07 1015.28 1015.47 1015.58 1015.59 1015.52 1015.40 1015.29 1015.25 1015.32 1015.53 1015.87 1016.30 1016.77 1017.23 1017.63 1017.94 1018.16 1018.30 1018.41 1018.53 1018.70 1018.94 1019.25 1019.62 1020.01 1020.40 1020.76
1014.26 1013.87 1013.49 1013.21 1013.10 1013.21 1013.52 1013.99 1014.55 1015.10 1015.57 1015.89 1016.04 1016.02 1015.86 1015.63 1015.40 1015.21 1015.12 1015.14 1015.25 1015.41 1015.58 1015.70 1015.75 1015.72 1015.61 1015.48 1015.37 1015.32 1015.38 1015.57 1015.87 1016.25 1016.66 1017.06 1017.41 1017.68 1017.87 1018.01 1018.13 1018.26 1018.44 1018.69 1019.00 1019.37 1019.78 1020.19 1020.57
1014.37 1014.07 1013.82 1013.69 1013.74 1013.97 1014.36 1014.84 1015.34 1015.80 1016.13 1016.32 1016.36 1016.25 1016.06 1015.83 1015.61 1015.46 1015.40 1015.41 1015.49 1015.59 1015.69 1015.73 1015.72 1015.64 1015.52 1015.39 1015.30 1015.29 1015.37 1015.56 1015.84 1016.17 1016.53 1016.86 1017.15 1017.38 1017.54 1017.67 1017.78 1017.92 1018.11 1018.36 1018.68 1019.05 1019.46 1019.88 1020.27
1014.36 1014.20 1014.14 1014.21 1014.43 1014.79 1015.24 1015.70 1016.11 1016.43 1016.60 1016.63 1016.53 1016.34 1016.12 1015.89 1015.71 1015.60 1015.55 1015.56 1015.60 1015.64 1015.65 1015.61 1015.53 1015.41 1015.29 1015.19 1015.15 1015.18 1015.31 1015.52 1015.79 1016.10 1016.40 1016.67 1016.90 1017.08 1017.21 1017.31 1017.42 1017.56 1017.75 1018.00 1018.31 1018.68 1019.08 1019.50 1019.92
1014.22 1014.26 1014.42 1014.72 1015.14 1015.62 1016.09 1016.50 1016.79 1016.93 1016.90 1016.75 1016.52 1016.25 1015.99 1015.79 1015.66 1015.60 1015.60 1015.62 1015.63 1015.61 1015.54 1015.43 1015.29 1015.14 1015.02 1014.96 1014.98 1015.08 1015.27 1015.51 1015.79 1016.07 1016.33 1016.54 1016.71 1016.83 1016.92 1017.00 1017.10 1017.24 1017.42 1017.66 1017.97 1018.32 1018.71 1019.12 1019.54
1014.01 1014.27 1014.69 1015.22 1015.82 1016.40 1016.88 1017.20 1017.33 1017.25 1017.01 1016.67 1016.30 1015.95 1015.69 1015.53 1015.49 1015.52 1015.58 1015.64 1015.66 1015.60 1015.48 1015.31 1015.12 1014.95 1014.84 1014.82 1014.89 1015.06 1015.30 1015.58 1015.87 1016.13 1016.35 1016.51 1016.63 1016.70 1016.75 1016.81 1016.89 1017.01 1017.19 1017.41 1017.69 1018.02 1018.38 1018.77 1019.17
1013.78 1014.29 1014.95 1015.70 1016.46 1017.10 1017.55 1017.76 1017.69 1017.39 1016.93 1016.41 1015.90 1015.51 1015.26 1015.19 1015.25 1015.41 1015.58 1015.72 1015.77 1015.71 1015.56 1015.35 1015.12 1014.93 1014.83 1014.84 1014.96 1015.17 1015.46 1015.77 1016.07 1016.32 1016.51 1016.63 1016.70 1016.73 1016.75 1016.78 1016.85 1016.95 1017.10 1017.30 1017.53 1017.81 1018.12 1018.46 1018.82
1013.64 1014.37 1015.25 1016.19 1017.05 1017.72 1018.10 1018.16 1017.89 1017.37 1016.70 1016.01 1015.41 1014.99 1014.79 1014.83 1015.03 1015.34 1015.65 1015.89 1016.01 1015.98 1015.83 1015.60 1015.34 1015.14 1015.03 1015.05 1015.20 1015.45 1015.77 1016.10 1016.41 1016.65 1016.82 1016.91 1016.94 1016.94 1016.93 1016.94 1016.98 1017.05 1017.16 1017.31 1017.49 1017.69 1017.92 1018.18 1018.48
1013.65 1014.56 1015.61 1016.67 1017.58 1018.23 1018.51 1018.41 1017.95 1017.22 1016.37 1015.55 1014.89 1014.48 1014.36 1014.52 1014.89 1015.37 1015.83 1016.20 1016.40 1016.42 1016.29 1016.04 1015.77 1015.55 1015.43 1015.45 1015.60 1015.87 1016.20 1016.54 1016.85 1017.08 1017.24 1017.31 1017.32 1017.30 1017.27 1017.25 1017.25 1017.29 1017.35 1017.43 1017.52 1017.63 1017.75 1017.90 1018.09
1013.84 1014.87 1016.02 1017.13 1018.03 1018.61 1018.77 1018.51 1017.87 1016.98 1016.00 1015.10 1014.42 1014.05 1014.04 1014.34 1014.87 1015.50 1016.12 1016.61 1016.90 1016.98 1016.86 1016.63 1016.34 1016.10 1015.97 1015.97 1016.12 1016.38 1016.70 1017.04 1017.35 1017.58 1017.72 1017.79 1017.79 1017.75 1017.70 1017.65 1017.62 1017.61 1017.60 1017.59 1017.58 1017.57 1017.56 1017.57 1017.63
1014.18 1015.27 1016.44 1017.53 1018.37 1018.84 1018.87 1018.46 1017.69 1016.68 1015.63 1014.71 1014.06 1013.77 1013.86 1014.29 1014.97 1015.74 1016.48 1017.07 1017.44 1017.56 1017.48 1017.25 1016.96 1016.71 1016.55 1016.54 1016.67 1016.91 1017.22 1017.55 1017.85 1018.07 1018.21 1018.27 1018.26 1018.21 1018.15 1018.07 1018.00 1017.93 1017.84 1017.74 1017.61 1017.47 1017.32 1017.19 1017.10
1014.61 1015.69 1016.81 1017.81 1018.54 1018.88 1018.79 1018.26 1017.40 1016.35 1015.30 1014.41 1013.83 1013.63 1013.84 1014.38 1015.16 1016.04 1016.86 1017.51 1017.93 1018.09 1018.02 1017.81 1017.53 1017.27 1017.11 1017.08 1017.19 1017.41 1017.70 1018.01 1018.29 1018.50 1018.63 1018.69 1018.68 1018.63 1018.54 1018.44 1018.33 1018.19 1018.03 1017.83 1017.59 1017.32 1017.03 1016.77 1016.54
1015.04 1016.04 1017.05 1017.91 1018.50 1018.71 1018.50 1017.91 1017.03 1016.00 1015.01 1014.21 1013.74 1013.65 1013.96 1014.58 1015.43 1016.34 1017.19 1017.87 1018.30 1018.48 1018.44 1018.24 1017.97 1017.73 1017.57 1017.54 1017.64 1017.84 1018.10 1018.38 1018.64 1018.84 1018.96 1019.01 1019.00 1018.94 1018.84 1018.72 1018.57 1018.38 1018.14 1017.86 1017.53 1017.15 1016.76 1016.38 1016.05
1015.39 1016.25 1017.10 1017.80 1018.22 1018.30 1018.02 1017.41 1016.57 1015.63 1014.76 1014.11 1013.77 1013.80 1014.18 1014.86 1015.72 1016.63 1017.46 1018.11 1018.53 1018.71 1018.68 1018.50 1018.27 1018.06 1017.93 1017.90 1017.99 1018.17 1018.41 1018.66 1018.89 1019.07 1019.17 1019.22 1019.20 1019.14 1019.04 1018.90 1018.72 1018.49 1018.21 1017.87 1017.47 1017.03 1016.57 1016.13 1015.74
1015.59 1016.29 1016.95 1017.45 1017.72 1017.70 1017.37 1016.79 1016.05 1015.26 1014.57 1014.09 1013.90 1014.04 1014.49 1015.19 1016.02 1016.87 1017.64 1018.23 1018.62 1018.78 1018.77 1018.63 1018.45 1018.28 1018.18 1018.18 1018.27 1018.44 1018.65 1018.87 1019.07 1019.21 1019.30 1019.33 1019.32 1019.25 1019.15 1019.01 1018.83 1018.59 1018.29 1017.92 1017.50 1017.04 1016.56 1016.10 1015.69
Thickness
5787 5788 5787 5778 5753 5729 5732 5746 5759 5769 5780 5795 5801 5797 5787 5780 5773 5770 5790 5799 5797 5791 5786 5782 5779 5777 5776 5774 5773 5772 5771 5770 5769 5767 5765 5763 5761 5759 5757 5756 5754 5753 5752 5750 5749 5747 5745 5744 5743
5784 5785 5777 5760 5734 5719 5730 5748 5757 5770 5784 5795 5797 5794 5785 5780 5787 5786 5790 5793 5793 5788 5783 5779 5777 5775 5773 5771 5769 5768 5767 5766 5765 5764 5762 5760 5758 5756 5754 5753 5752 5751 5749 5748 5747 5745 5743 5742 5741
5781 5779 5760 5741 5726 5722 5739 5755 5763 5775 5788 5791 5785 5786 5780 5776 5783 5785 5789 5790 5788 5783 5779 5775 5773 5771 5770 5768 5766 5764 5763 5762 5760 5759 5758 5757 5755 5754 5752 5750 5749 5748 5747 5746 5745 5743 5741 5740 5738
5773 5762 5748 5731 5730 5734 5744 5757 5767 5772 5782 5788 5783 5774 5775 5780 5784 5786 5787 5785 5781 5776 5773 5771 5769 5767 5765 5764 5762 5761 5759 5758 5756 5755 5754 5753 5752 5751 5749 5748 5747 5746 5745 5743 5742 5741 5739 5738 5737
5763 5747 5731 5719 5728 5739 5750 5761 5770 5769 5774 5780 5779 5766 5763 5774 5783 5783 5781 5779 5774 5771 5769 5766 5764 5763 5761 5759 5758 5756 5755 5754 5752 5751 5750 5749 5748 5747 5747 5746 5744 5743 5742 5741 5740 5739 5737 5736 5735
5744 5733 5713 5713 5726 5740 5751 5762 5767 5767 5770 5774 5772 5762 5757 5768 5773 5775 5775 5773 5771 5768 5766 5762 5760 5758 5757 5755 5754 5753 5751 5750 5749 5748 5746 5746 5745 5744 5743 5743 5742 5741 5740 5738 5737 5736 5735 5734 5733
5735 5721 5714 5720 5723 5734 5752 5762 5762 5761 5763 5767 5771 5757 5754 5761 5766 5769 5769 5767 5764 5763 5761 5758 5755 5753 5752 5751 5750 5749 5748 5747 5746 5744 5743 5742 5741 5741 5740 5740 5739 5738 5737 5736 5734 5733 5732 5732 5731
5738 5722 5717 5715 5722 5732 5749 5755 5759 5761 5760 5769 5770 5755 5749 5756 5762 5763 5762 5759 5757 5756 5754 5752 5750 5748 5747 5746 5745 5744 5743 5743 5742 5741 5740 5739 5738 5738 5737 5737 5736 5735 5734 5733 5731 5730 5729 5729 5728
5739 5712 5706 5718 5724 5733 5745 5747 5754 5761 5760 5760 5762 5760 5758 5758 5758 5755 5752 5749 5748 5748 5747 5746 5744 5744 5744 5742 5740 5739 5739 5739 5738 5737 5737 5736 5735 5734 5734 5733 5733 5732 5731 5730 5729 5728 5726 5726 5725
5725 5704 5715 5727 5734 5737 5740 5743 5748 5751 5748 5748 5749 5752 5754 5753 5750 5746 5743 5740 5739 5739 5739 5740 5739 5739 5738 5738 5736 5735 5735 5734 5734 5734 5734 5733 5732 5731 5731 5730 5729 5729 5728 5727 5726 5725 5724 5723 5722
5725 5714 5723 5731 5737 5739 5738 5741 5748 5745 5740 5743 5743 5743 5745 5744 5743 5740 5738 5737 5736 5736 5735 5734 5734 5735 5734 5732 5731 5731 5730 5729 5730 5730 5731 5730 5729 5727 5727 5726 5726 5725 5724 5723 5723 5722 5721 5720 5719
5721 5723 5727 5732 5738 5737 5737 5739 5739 5739 5742 5749 5747 5744 5742 5739 5737 5735 5734 5733 5732 5731 5730 5729 5730 5729 5728 5728 5728 5727 5726 5725 5725 5725 5725 5724 5724 5723 5722 5722 5721 5721 5720 5719 5718 5718 5717 5716 5716
5718 5721 5728 5732 5733 5734 5735 5732 5732 5730 5739 5744 5741 5737 5734 5733 5732 5731 5730 5729 5729 5727 5726 5726 5726 5725 5724 5723 5723 5723 5722 5721 5721 5720 5720 5720 5719 5718 5718 5718 5717 5716 5716 5715 5714 5713 5713 5712 5712
5719 5720 5723 5727 5730 5733 5729 5726 5726 5723 5732 5732 5730 5727 5727 5726 5726 5725 5723 5722 5722 5721 5720 5720 5720 5721 5720 5719 5717 5717 5717 5716 5716 5715 5714 5715 5714 5714 5714 5714 5713 5712 5712 5712 5711 5710 5709 5708 5707
5717 5713 5716 5722 5725 5727 5726 5715 5716 5721 5724 5721 5720 5719 5719 5719 5719 5718 5717 5717 5716 5714 5713 5715 5714 5715 5714 5712 5711 5710 5710 5710 5710 5710 5710 5710 5710 5710 5710 5709 5709 5708 5708 5707 5707 5706 5704 5703 5702
5709 5702 5698 5711 5719 5722 5717 5700 5710 5716 5716 5713 5713 5713 5712 5711 5712 5712 5712 5711 5711 5709 5707 5707 5709 5707 5707 5706 5705 5704 5705 5705 5704 5705 5705 5705 5705 5706 5706 5706 5705 5704 5703 5703 5702 5701 5699 5698 5697
5687 5684 5690 5701 5712 5715 5709 5698 5705 5710 5709 5706 5707 5707 5706 5704 5705 5705 5706 5705 5705 5703 5702 5701 5702 5701 5700 5700 5700 5700 5700 5699 5700 5700 5700 5700 5701 5701 5701 5701 5701 5700 5699 5699 5698 5697 5695 5693 5692
5680 5684 5686 5689 5703 5705 5697 5694 5700 5705 5704 5702 5702 5702 5701 5699 5698 5699 5699 5699 5698 5697 5696 5695 5695 5694 5695 5694 5695 5695 5694 5694 5695 5695 5695 5696 5696 5697 5697 5696 5695 5695 5694 5693 5693 5692 5691 5690 5689
5688 5685 5682 5690 5702 5698 5691 5689 5694 5699 5698 5695 5695 5696 5696 5695 5694 5694 5693 5693 5692 5690 5689 5689 5688 5689 5690 5688 5688 5688 5687 5687 5689 5689 5690 5691 5691 5691 5691 5690 5690 5689 5689 5689 5688 5687 5686 5684 5683
5684 5681 5681 5689 5698 5693 5685 5684 5690 5693 5694 5695 5693 5691 5691 5689 5689 5688 5687 5686 5685 5684 5683 5682 5681 5682 5682 5682 5683 5683 5683 5682 5682 5683 5685 5685 5685 5685 5684 5685 5685 5684 5684 5684 5684 5682 5680 5679 5678
5682 5681 5684 5684 5687 5688 5683 5675 5680 5687 5691 5691 5690 5689 5687 5685 5683 5682 5681 5679 5678 5677 5676 5676 5675 5675 5676 5677 5678 5678 5677 5677 5676 5676 5677 5678 5678 5679 5679 5679 5679 5678 5678 5678 5678 5677 5676 5673 5672
5677 5691 5690 5687 5676 5666 5675 5659 5672 5679 5682 5685 5685 5684 5681 5679 5677 5675 5674 5671 5670 5670 5669 5669 5669 5669 5670 5671 5672 5670 5668 5667 5667 5667 5669 5670 5671 5671 5672 5673 5672 5672 5672 5672 5672 5672 5671 5670 5668
5688 5694 5690 5684 5672 5662 5663 5657 5662 5674 5675 5680 5682 5682 5678 5675 5672 5669 5667 5665 5664 5663 5662 5662 5662 5662 5663 5663 5663 5662 5661 5660 5660 5661 5661 5662 5663 5664 5664 5665 5665 5665 5665 5665 5665 5665 5665 5665 5664
5694 5685 5676 5666 5660 5649 5657 5654 5657 5667 5676 5680 5681 5680 5675 5671 5667 5663 5661 5659 5656 5655 5654 5654 5653 5653 5653 5654 5654 5654 5653 5652 5652 5652 5652 5653 5654 5655 5655 5656 5656 5657 5657 5658 5658 5658 5658 5658 5659
5686 5667 5649 5647 5638 5642 5656 5654 5659 5675 5682 5682 5679 5676 5671 5666 5660 5656 5653 5652 5648 5646 5645 5644 5644 5643 5644 5645 5645 5645 5644 5644 5644 5644 5644 5644 5645 5645 5646 5647 5648 5648 5649 5650 5651 5651 5651 5651 5652
5679 5670 5648 5640 5636 5639 5650 5650 5662 5675 5680 5681 5678 5673 5666 5660 5654 5650 5646 5644 5642 5639 5638 5637 5635 5634 5635 5635 5635 5636 5636 5635 5635 5634 5635 5635 5635 5636 5637 5639 5639 5640 5641 5642 5642 5643 5643 5644 5645
5674 5664 5664 5646 5640 5635 5641 5653 5664 5671 5671 5672 5670 5665 5659 5653 5648 5643 5639 5636 5633 5631 5630 5628 5627 5626 5626 5626 5627 5626 5626 5626 5626 5626 5626 5626 5626 5627 5628 5630 5631 5631 5632 5632 5633 5634 5635 5636 5637
5680 5666 5652 5643 5632 5630 5641 5645 5651 5662 5664 5664 5661 5657 5651 5646 5640 5635 5631 5627 5624 5622 5621 5619 5618 5617 5616 5617 5616 5616 5616 5616 5616 5616 5616 5616 5616 5618 5619 5621 5621 5622 5623 5623 5624 5625 5626 5627 5628
5670 5663 5651 5639 5639 5630 5628 5639 5664 5664 5665 5662 5657 5652 5645 5639 5633 5627 5622 5618 5616 5614 5612 5610 5609 5608 5607 5607 5606 5605 5605 5605 5606 5606 5605 5605 5606 5608 5609 5610 5612 5613 5613 5614 5615 5616 5617 5618 5619
5673 5665 5654 5645 5638 5634 5630 5640 5665 5664 5663 5659 5652 5645 5638 5632 5626 5620 5615 5610 5607 5605 5603 5601 5599 5598 5597 5597 5596 5595 5595 5595 5595 5595 5595 5595 5596 5597 5598 5600 5601 5603 5604 5605 5606 5607 5608 5610 5611